Tracking 27188 objects as of 1-Apr-2023
HD Live streaming from Space Station
objects crossing your sky now

STARLINK-2585

Track STARLINK-2585 now!
10-day predictions
STARLINK-2585 is classified as:


NORAD ID: 48382
Int'l Code: 2021-038AF
Perigee: 553.6 km
Apogee: 555.0 km
Inclination: 53.1 °
Period: 95.6 minutes
Semi major axis: 6925 km
RCS: Unknown
Launch date: May 4, 2021
Source: United States (US)
Launch site: AIR FORCE EASTERN TEST RANGE (AFETR)
Your satellite tracking list
Your tracking list is empty




NASA's NSSDC Master Catalog

Two Line Element Set (TLE):
1 48382U 21038AF  23091.36449727  .00046030  00000-0  30868-2 0  9996
2 48382  53.0536 129.9595 0000987 100.5273 259.5827 15.06426298105985
Source of the keplerian elements: AFSPC